When you browse on this site, cookies collect data to enhance your experience and personalize the content and advertising you see.
Visit our Privacy Policy to learn more. By continuing to use the site, you agree to this use of cookies and data.
  • In Belgien
  • Länderverzeichnis
  • Für 7 Tage
  • Wassertemperatur
  • Satellitenkarten
  • Wetterkarte
  • Widgets
  • user-avatar
    Anmelden

    Stündliche Wetter Jerewan

    Heute, 23 März, Samstag

    Zeit Temperatur Niederschläge Wind Luftdruck Luftfeuchtigkeit
    00:00 +7°C° 0 mm 1 m/S 692 mmHg 45%
    01:00 +7°C° 0 mm 1 m/S 692 mmHg 46%
    02:00 +6°C° 0 mm 1 m/S 692 mmHg 47%
    03:00 +6°C° 0 mm 1 m/S 691 mmHg 48%
    04:00 +5°C° 0 mm 1 m/S 691 mmHg 49%
    05:00 +5°C° 0 mm 1 m/S 691 mmHg 50%
    06:00 +5°C° 0 mm 1 m/S 691 mmHg 51%
    07:00 +5°C° 0 mm 2 m/S 690 mmHg 45%
    08:00 +6°C° 0 mm 2 m/S 690 mmHg 40%
    09:00 +7°C° 0 mm 2 m/S 690 mmHg 34%
    10:00 +8°C° 0 mm 2 m/S 689 mmHg 33%
    11:00 +10°C° 0 mm 3 m/S 689 mmHg 32%
    12:00 +11°C° 0 mm 3 m/S 688 mmHg 30%
    13:00 +11°C° 0 mm 3 m/S 688 mmHg 31%
    14:00 +12°C° 0 mm 3 m/S 687 mmHg 31%
    15:00 +12°C° 0 mm 3 m/S 687 mmHg 32%
    16:00 +11°C° 0 mm 3 m/S 687 mmHg 33%
    17:00 +11°C° 0 mm 3 m/S 686 mmHg 35%
    18:00 +10°C° 0 mm 3 m/S 686 mmHg 37%
    19:00 +10°C° 0 mm 3 m/S 686 mmHg 38%
    20:00 +9°C° 0 mm 3 m/S 687 mmHg 40%
    21:00 +8°C° 0 mm 3 m/S 687 mmHg 41%
    22:00 +8°C° 0.1 mm 3 m/S 686 mmHg 43%
    23:00 +8°C° 0.1 mm 3 m/S 686 mmHg 44%

    Morgen, 24 März, Sonntag

    Zeit Temperatur Niederschläge Wind Luftdruck Luftfeuchtigkeit
    00:00 +8°C° 0.1 mm 3 m/S 686 mmHg 46%
    01:00 +7°C° 0.2 mm 3 m/S 685 mmHg 49%
    02:00 +7°C° 0.2 mm 3 m/S 685 mmHg 52%
    03:00 +7°C° 0.2 mm 3 m/S 685 mmHg 55%
    04:00 +7°C° 0.1 mm 3 m/S 684 mmHg 55%
    05:00 +7°C° 0.1 mm 3 m/S 684 mmHg 56%
    06:00 +7°C° 0.1 mm 3 m/S 684 mmHg 57%
    07:00 +8°C° 0.1 mm 3 m/S 684 mmHg 54%
    08:00 +9°C° 0.1 mm 3 m/S 684 mmHg 51%
    09:00 +10°C° 0.1 mm 4 m/S 684 mmHg 48%
    10:00 +11°C° 0.1 mm 4 m/S 683 mmHg 45%
    11:00 +12°C° 0.1 mm 4 m/S 683 mmHg 43%
    12:00 +13°C° 0.1 mm 4 m/S 683 mmHg 41%
    13:00 +13°C° 0.1 mm 3 m/S 682 mmHg 41%
    14:00 +14°C° 0.1 mm 3 m/S 682 mmHg 41%
    15:00 +15°C° 0.1 mm 2 m/S 682 mmHg 41%
    16:00 +13°C° 0.9 mm 3 m/S 682 mmHg 47%
    17:00 +11°C° 0.9 mm 3 m/S 682 mmHg 53%
    18:00 +10°C° 0.9 mm 4 m/S 682 mmHg 59%
    19:00 +8°C° 1 mm 4 m/S 683 mmHg 60%
    20:00 +7°C° 1 mm 4 m/S 683 mmHg 60%
    21:00 +7°C° 1 mm 4 m/S 684 mmHg 61%
    22:00 +6°C° 0.2 mm 4 m/S 684 mmHg 61%
    23:00 +6°C° 0.2 mm 4 m/S 684 mmHg 61%

    übermorgen, 25 März, Montag

    Zeit Temperatur Niederschläge Wind Luftdruck Luftfeuchtigkeit
    00:00 +6°C° 0.2 mm 4 m/S 684 mmHg 61%
    01:00 +5°C° 0.1 mm 3 m/S 684 mmHg 61%
    02:00 +5°C° 0.1 mm 3 m/S 684 mmHg 61%
    03:00 +5°C° 0.1 mm 3 m/S 684 mmHg 61%
    04:00 +4°C° 0 mm 3 m/S 684 mmHg 61%
    05:00 +4°C° 0 mm 3 m/S 684 mmHg 61%
    06:00 +4°C° 0 mm 3 m/S 683 mmHg 61%
    07:00 +5°C° 0 mm 3 m/S 683 mmHg 56%
    08:00 +7°C° 0 mm 3 m/S 683 mmHg 52%
    09:00 +8°C° 0 mm 4 m/S 683 mmHg 47%
    10:00 +10°C° 0 mm 3 m/S 683 mmHg 45%
    11:00 +11°C° 0 mm 3 m/S 682 mmHg 43%
    12:00 +13°C° 0 mm 3 m/S 682 mmHg 41%
    13:00 +14°C° 0 mm 2 m/S 682 mmHg 40%
    14:00 +14°C° 0 mm 2 m/S 681 mmHg 40%
    15:00 +14°C° 0 mm 2 m/S 681 mmHg 40%
    16:00 +14°C° 0.1 mm 2 m/S 682 mmHg 41%
    17:00 +13°C° 0.1 mm 1 m/S 682 mmHg 43%
    18:00 +13°C° 0.1 mm 1 m/S 682 mmHg 45%
    19:00 +12°C° 0.1 mm 1 m/S 683 mmHg 47%
    20:00 +11°C° 0.1 mm 1 m/S 684 mmHg 50%
    21:00 +11°C° 0.1 mm 1 m/S 684 mmHg 52%
    22:00 +10°C° 0.1 mm 1 m/S 684 mmHg 54%
    23:00 +9°C° 0.1 mm 2 m/S 684 mmHg 55%

    26 März, Dienstag

    Zeit Temperatur Niederschläge Wind Luftdruck Luftfeuchtigkeit
    00:00 +8°C° 0.1 mm 2 m/S 684 mmHg 56%
    01:00 +9°C° 0 mm 1 m/S 684 mmHg 58%
    02:00 +8°C° 0 mm 1 m/S 684 mmHg 59%
    03:00 +8°C° 0 mm 1 m/S 684 mmHg 60%
    04:00 +7°C° 0 mm 1 m/S 685 mmHg 60%
    05:00 +7°C° 0 mm 1 m/S 685 mmHg 61%
    06:00 +7°C° 0 mm 1 m/S 685 mmHg 62%
    07:00 +8°C° 0 mm 1 m/S 685 mmHg 57%
    08:00 +9°C° 0 mm 1 m/S 685 mmHg 53%
    09:00 +11°C° 0 mm 1 m/S 685 mmHg 49%
    10:00 +12°C° 0 mm 1 m/S 685 mmHg 46%
    11:00 +13°C° 0 mm 1 m/S 685 mmHg 43%
    12:00 +14°C° 0 mm 1 m/S 685 mmHg 40%
    13:00 +14°C° 0 mm 1 m/S 684 mmHg 38%
    14:00 +15°C° 0 mm 1 m/S 684 mmHg 36%
    15:00 +15°C° 0 mm 1 m/S 683 mmHg 34%
    16:00 +15°C° 0 mm 2 m/S 683 mmHg 35%
    17:00 +14°C° 0 mm 2 m/S 683 mmHg 36%
    18:00 +14°C° 0 mm 2 m/S 684 mmHg 36%
    19:00 +13°C° 0 mm 2 m/S 684 mmHg 40%
    20:00 +12°C° 0 mm 2 m/S 684 mmHg 44%
    21:00 +10°C° 0 mm 2 m/S 685 mmHg 47%
    22:00 +10°C° 0 mm 2 m/S 685 mmHg 49%
    23:00 +10°C° 0 mm 2 m/S 685 mmHg 50%

    27 März, Mittwoch

    Zeit Temperatur Niederschläge Wind Luftdruck Luftfeuchtigkeit
    00:00 +10°C° 0 mm 1 m/S 685 mmHg 52%
    01:00 +10°C° 0 mm 1 m/S 685 mmHg 53%
    02:00 +9°C° 0 mm 1 m/S 685 mmHg 55%
    03:00 +7°C° 0 mm 0 m/S 685 mmHg 57%
    04:00 +7°C° 0 mm 0 m/S 685 mmHg 58%
    05:00 +6°C° 0 mm 0 m/S 685 mmHg 59%
    06:00 +6°C° 0 mm 0 m/S 685 mmHg 61%
    07:00 +7°C° 0 mm 0 m/S 685 mmHg 56%
    08:00 +9°C° 0 mm 1 m/S 686 mmHg 52%
    09:00 +10°C° 0 mm 1 m/S 686 mmHg 47%
    10:00 +11°C° 0 mm 1 m/S 686 mmHg 45%
    11:00 +12°C° 0 mm 1 m/S 686 mmHg 43%
    12:00 +13°C° 0 mm 1 m/S 685 mmHg 41%
    13:00 +14°C° 0 mm 1 m/S 685 mmHg 40%
    14:00 +14°C° 0 mm 1 m/S 685 mmHg 39%
    15:00 +14°C° 0 mm 1 m/S 685 mmHg 39%
    16:00 +14°C° 0 mm 2 m/S 686 mmHg 40%
    17:00 +14°C° 0 mm 2 m/S 686 mmHg 40%
    18:00 +13°C° 0 mm 2 m/S 686 mmHg 41%
    19:00 +12°C° 0 mm 2 m/S 687 mmHg 43%
    20:00 +12°C° 0 mm 2 m/S 687 mmHg 45%
    21:00 +10°C° 0 mm 2 m/S 688 mmHg 47%
    22:00 +10°C° 0.1 mm 2 m/S 688 mmHg 48%
    23:00 +9°C° 0.1 mm 2 m/S 688 mmHg 50%

    28 März, Donnerstag

    Zeit Temperatur Niederschläge Wind Luftdruck Luftfeuchtigkeit
    00:00 +9°C° 0.1 mm 2 m/S 688 mmHg 51%
    01:00 +8°C° 0.1 mm 2 m/S 688 mmHg 53%
    02:00 +8°C° 0.1 mm 2 m/S 688 mmHg 55%
    03:00 +8°C° 0.1 mm 2 m/S 688 mmHg 58%
    04:00 +7°C° 0.1 mm 2 m/S 688 mmHg 59%
    05:00 +7°C° 0.1 mm 2 m/S 688 mmHg 61%
    06:00 +7°C° 0.1 mm 2 m/S 688 mmHg 62%
    07:00 +8°C° 0.1 mm 2 m/S 688 mmHg 60%
    08:00 +8°C° 0.1 mm 2 m/S 688 mmHg 58%
    09:00 +9°C° 0.1 mm 2 m/S 688 mmHg 55%
    10:00 +10°C° 0.1 mm 2 m/S 688 mmHg 53%
    11:00 +10°C° 0.1 mm 2 m/S 688 mmHg 50%
    12:00 +12°C° 0.1 mm 2 m/S 688 mmHg 47%
    13:00 +12°C° 0.1 mm 2 m/S 687 mmHg 47%
    14:00 +11°C° 0.1 mm 3 m/S 687 mmHg 47%
    15:00 +11°C° 0.1 mm 3 m/S 686 mmHg 47%
    16:00 +12°C° 0 mm 2 m/S 687 mmHg 48%
    17:00 +10°C° 0 mm 2 m/S 687 mmHg 48%
    18:00 +10°C° 0 mm 2 m/S 687 mmHg 49%
    19:00 +10°C° 0 mm 2 m/S 687 mmHg 50%
    20:00 +9°C° 0 mm 2 m/S 687 mmHg 51%
    21:00 +9°C° 0 mm 2 m/S 688 mmHg 53%
    22:00 +8°C° 0.1 mm 2 m/S 687 mmHg 54%
    23:00 +9°C° 0.1 mm 1 m/S 687 mmHg 54%
    Mehr zeigen